Weather History for KGBG - March, 2013

Change the Weather History Date:

Tuesday, March 12, 2013

  Actual Average Record
Temperature  
Mean Temperature 30 °F -  
Max Temperature 37 °F 45 °F 79 °F (1990)
Min Temperature 24 °F 28 °F 0 °F (1960)
Degree Days  
Heating Degree Days 35    
Moisture  
Dew Point 25 °F    
Average Humidity 83    
Maximum Humidity 98    
Minimum Humidity 71    
Precipitation  
Precipitation 0.00 in - - ()
Sea Level Pressure  
Sea Level Pressure 30.01 in    
Wind  
Wind Speed 14 mph (West)    
Max Wind Speed 24 mph    
Max Gust Speed 32 mph    
Visibility 9 miles    
Events Snow    
Averages and records for this station are not official NWS values.
T = Trace of Precipitation, MM = Missing Value Source: NWS Daily Summary

Daily Weather History Graph

Daily Weather History Graph

Search for Another Location

Airport or City:

Trip Planner

Search our weather history database for the weather conditions in past years. The results will help you decide how hot, cold, wet, or windy it might be!

Date:

Astronomy

Mar. 12, 2013 Rise Set
Actual Time 7:17 AM CDT 7:05 PM CDT
Civil Twilight 6:50 AM CDT 7:32 PM CDT
Nautical Twilight 6:18 AM CDT 8:04 PM CDT
Astronomical Twilight 5:46 AM CDT 8:36 PM CDT
Moon 7:23 AM CDT (3/12) 8:21 PM CDT (3/12)
Length of Visible Light 12h 42m
Length of Day
11h 47m
New Moon, 1% of the Moon is Illuminated
Mar 12
New Moon
Mar 19
First Quarter
Mar 27
Full
Apr 2
Last Quarter
Apr 10
New

Hourly Weather History & Observations

Time (CDT) Temp. Windchill Dew Point Humidity Pressure Visibility Wind Dir Wind Speed Gust Speed Precip Events Conditions
12:15 AM 29.1 °F 17.9 °F 23.5 °F 80% 29.91 in 10.0 mi West 15.0 mph - N/A   Overcast
12:35 AM 29.1 °F 18.9 °F 23.7 °F 80% 29.91 in 10.0 mi West 12.7 mph - N/A   Overcast
12:55 AM 28.8 °F 16.6 °F 23.2 °F 80% 29.91 in 10.0 mi West 17.3 mph - N/A   Overcast
1:15 AM 28.4 °F 18.5 °F 22.5 °F 78% 29.92 in 10.0 mi West 11.5 mph - N/A   Overcast
1:35 AM 28.2 °F 18.3 °F 22.5 °F 79% 29.93 in 10.0 mi West 11.5 mph 18.4 mph N/A   Overcast
1:55 AM 28.0 °F 18.1 °F 22.5 °F 80% 29.94 in 10.0 mi West 11.5 mph - N/A   Overcast
2:15 AM 27.5 °F 17.4 °F 22.3 °F 81% 29.94 in 10.0 mi West 11.5 mph - N/A   Mostly Cloudy
2:35 AM 27.1 °F 16.9 °F 22.3 °F 82% 29.94 in 10.0 mi West 11.5 mph 18.4 mph N/A   Scattered Clouds
2:55 AM 26.6 °F 14.7 °F 22.5 °F 84% 29.94 in 10.0 mi West 15.0 mph 18.4 mph N/A   Clear
3:15 AM 26.6 °F 15.2 °F 22.6 °F 85% 29.94 in 10.0 mi West 13.8 mph - N/A   Clear
3:35 AM 26.6 °F 16.2 °F 23.0 °F 86% 29.94 in 10.0 mi West 11.5 mph - N/A   Clear
3:55 AM 26.1 °F 16.2 °F 22.1 °F 85% 29.93 in 10.0 mi West 10.4 mph - N/A   Clear
4:15 AM 25.9 °F 16.0 °F 22.1 °F 86% 29.93 in 10.0 mi West 10.4 mph - N/A   Clear
4:35 AM 25.7 °F 16.4 °F 22.5 °F 88% 29.93 in 10.0 mi West 9.2 mph - N/A   Clear
4:55 AM 25.7 °F 15.7 °F 22.5 °F 88% 29.94 in 10.0 mi West 10.4 mph - N/A   Clear
5:15 AM 25.5 °F 16.9 °F 22.1 °F 87% 29.95 in 10.0 mi WSW 8.1 mph - N/A   Clear
5:35 AM 25.3 °F 16.0 °F 22.6 °F 89% 29.96 in 10.0 mi West 9.2 mph - N/A   Clear
5:55 AM 25.2 °F 15.7 °F 22.5 °F 89% 29.96 in 10.0 mi WSW 9.2 mph - N/A   Clear
6:15 AM 24.8 °F 16.9 °F 22.1 °F 89% 29.96 in 10.0 mi WSW 6.9 mph - N/A   Clear
6:35 AM 24.8 °F 16.9 °F 22.1 °F 89% 29.96 in 10.0 mi WSW 6.9 mph - N/A   Clear
6:55 AM 24.6 °F 16.7 °F 21.9 °F 89% 29.96 in 10.0 mi WSW 6.9 mph - N/A   Clear
7:15 AM 24.8 °F 17.9 °F 21.9 °F 89% 29.96 in 10.0 mi WSW 5.8 mph - N/A   Clear
7:35 AM 24.8 °F 17.9 °F 21.9 °F 89% 29.96 in 10.0 mi WSW 5.8 mph - N/A   Clear
7:55 AM 25.7 °F 16.4 °F 22.1 °F 86% 29.96 in 10.0 mi WSW 9.2 mph - N/A   Clear
8:15 AM 26.6 °F 17.5 °F 22.8 °F 86% 29.98 in 10.0 mi WSW 9.2 mph - N/A   Clear
8:35 AM 27.5 °F 20.2 °F 23.0 °F 83% 29.98 in 10.0 mi WSW 6.9 mph - N/A   Clear
8:55 AM 28.4 °F 19.1 °F 23.4 °F 81% 29.99 in 10.0 mi West 10.4 mph - N/A   Clear
9:15 AM 29.7 °F 20.1 °F 24.1 °F 80% 29.99 in 10.0 mi West 11.5 mph - N/A   Clear
9:35 AM 30.9 °F 21.7 °F 25.2 °F 79% 30.01 in 10.0 mi West 11.5 mph - N/A   Clear
9:55 AM 31.6 °F 24.4 °F 25.5 °F 78% 30.01 in 10.0 mi WSW 8.1 mph - N/A   Clear
10:15 AM 32.2 °F 25.0 °F 25.5 °F 76% 30.00 in 10.0 mi West 8.1 mph - N/A   Clear
10:35 AM 33.3 °F 25.7 °F 26.2 °F 75% 30.01 in 10.0 mi West 9.2 mph - N/A   Scattered Clouds
10:55 AM 33.8 °F 25.3 °F 26.8 °F 75% 30.01 in 10.0 mi West 11.5 mph - N/A   Scattered Clouds
11:15 AM 34.2 °F 24.8 °F 27.5 °F 77% 30.01 in 10.0 mi West 13.8 mph - N/A   Mostly Cloudy
11:35 AM 34.3 °F 25.9 °F 27.3 °F 76% 30.01 in 10.0 mi West 11.5 mph 17.3 mph N/A   Overcast
11:55 AM 35.6 °F 28.0 °F 27.9 °F 73% 30.00 in 10.0 mi WSW 10.4 mph - N/A   Mostly Cloudy
12:15 PM 36.3 °F 28.4 °F 28.6 °F 74% 30.00 in 10.0 mi SW 11.5 mph 16.1 mph N/A   Scattered Clouds
12:35 PM 35.1 °F 25.9 °F 27.5 °F 74% 30.00 in 10.0 mi SW 13.8 mph - N/A   Overcast
12:55 PM 34.0 °F 23.4 °F 28.2 °F 79% 30.01 in 3.0 mi SW 17.3 mph 23.0 mph N/A Snow Light Snow
1:15 PM 32.2 °F 23.8 °F 29.7 °F 90% 30.01 in 5.0 mi WSW 10.4 mph - N/A Snow Light Snow
1:35 PM 32.7 °F 23.9 °F 30.4 °F 91% 30.01 in 1.8 mi WSW 11.5 mph 17.3 mph N/A Snow Light Snow
1:55 PM 32.2 °F 21.8 °F 30.4 °F 93% 30.01 in 1.5 mi WSW 15.0 mph 23.0 mph N/A Snow Light Snow
2:15 PM 32.9 °F 21.6 °F 30.6 °F 91% 30.01 in 4.0 mi WSW 18.4 mph 24.2 mph N/A Snow Light Snow
2:35 PM 34.2 °F 22.1 °F 30.9 °F 88% 30.01 in 4.0 mi West 23.0 mph 26.5 mph N/A Snow Light Snow
2:55 PM 33.1 °F 21.5 °F 29.1 °F 85% 30.01 in 10.0 mi West 19.6 mph 27.6 mph N/A   Overcast
3:15 PM 33.1 °F 21.2 °F 28.4 °F 83% 30.00 in 10.0 mi West 20.7 mph 28.8 mph N/A   Light Drizzle
3:35 PM 34.9 °F 24.2 °F 29.3 °F 80% 30.00 in 10.0 mi West 18.4 mph 26.5 mph N/A   Overcast
3:55 PM 34.3 °F 23.5 °F 28.0 °F 78% 30.00 in 10.0 mi West 18.4 mph 25.3 mph N/A   Overcast
4:15 PM 34.0 °F 21.5 °F 28.6 °F 81% 30.01 in 7.0 mi West 24.2 mph 31.1 mph N/A Snow Light Snow
4:35 PM 33.3 °F 21.5 °F 30.0 °F 88% 30.01 in 4.0 mi West 20.7 mph 28.8 mph N/A Snow Light Snow
4:55 PM 32.0 °F 19.8 °F 30.4 °F 94% 30.02 in 0.8 mi West 20.7 mph 25.3 mph N/A Snow Light Snow
5:15 PM 32.7 °F 20.4 °F 29.8 °F 89% 30.02 in 10.0 mi West 21.9 mph 28.8 mph N/A   Overcast
5:35 PM 32.9 °F 21.3 °F 29.1 °F 86% 30.02 in 10.0 mi West 19.6 mph 27.6 mph N/A   Overcast
5:55 PM 31.8 °F 19.0 °F 28.4 °F 87% 30.03 in 2.5 mi West 23.0 mph 32.2 mph N/A   Overcast
6:15 PM 31.1 °F 18.9 °F 27.5 °F 87% 30.03 in 10.0 mi West 19.6 mph 24.2 mph N/A   Overcast
6:35 PM 30.2 °F 18.1 °F 29.7 °F 98% 30.04 in 1.0 mi West 18.4 mph 25.3 mph N/A Snow Light Snow
6:55 PM 29.8 °F 17.7 °F 28.4 °F 94% 30.05 in 4.0 mi West 18.4 mph 25.3 mph N/A Snow Light Snow
7:15 PM 29.8 °F 18.0 °F 27.3 °F 90% 30.06 in 5.0 mi WNW 17.3 mph 21.9 mph N/A Snow Light Snow
7:35 PM 29.1 °F 16.4 °F 22.3 °F 76% 30.07 in 10.0 mi WNW 19.6 mph 26.5 mph N/A Snow Light Snow
7:55 PM 28.8 °F 17.5 °F 21.9 °F 76% 30.08 in 10.0 mi WNW 15.0 mph 23.0 mph N/A   Overcast
8:15 PM 28.2 °F 16.8 °F 22.8 °F 80% 30.09 in 10.0 mi WNW 15.0 mph 21.9 mph N/A Snow Light Snow
8:35 PM 28.0 °F 13.9 °F 21.2 °F 76% 30.10 in 10.0 mi WNW 23.0 mph 29.9 mph N/A   Overcast
8:55 PM 27.9 °F 14.7 °F 22.1 °F 79% 30.10 in 10.0 mi WNW 19.6 mph 25.3 mph N/A Snow Light Snow
9:15 PM 27.3 °F 14.0 °F 22.1 °F 81% 30.11 in 10.0 mi WNW 19.6 mph 23.0 mph N/A Snow Light Snow
9:35 PM 26.2 °F 12.6 °F 21.6 °F 82% 30.12 in 7.0 mi WNW 19.6 mph 27.6 mph N/A Snow Light Snow
9:55 PM 26.6 °F 13.4 °F 20.3 °F 77% 30.12 in 10.0 mi WNW 18.4 mph 26.5 mph N/A   Overcast
10:15 PM 26.6 °F 13.1 °F 18.5 °F 71% 30.12 in 10.0 mi WNW 19.6 mph 26.5 mph N/A   Overcast
10:35 PM 26.2 °F 13.0 °F 18.7 °F 73% 30.13 in 10.0 mi WNW 18.4 mph - N/A   Overcast
10:55 PM 26.4 °F 11.8 °F 19.8 °F 76% 30.13 in 10.0 mi WNW 23.0 mph 29.9 mph N/A   Overcast
11:15 PM 25.7 °F 12.7 °F 19.6 °F 78% 30.13 in 10.0 mi WNW 17.3 mph 29.9 mph N/A   Overcast
11:35 PM 26.2 °F 13.0 °F 18.5 °F 73% 30.14 in 10.0 mi WNW 18.4 mph 25.3 mph N/A Snow Light Snow
11:55 PM 25.9 °F 12.1 °F 19.9 °F 78% 30.14 in 4.0 mi WNW 19.6 mph 25.3 mph N/A Snow Light Snow